Вернуться в каталог

STARLINK-4755

АктивенСвязьVLEO
NORAD 53851·PAYLOAD·🇺🇸 United States

Запущен Sep 19, 2022 с Cape Canaveral Space Force Station

Loading…

Ближайшие Пролёты (ближайшие 24 часа)

TLE

СвежийSource: CelesTrak SupGP

Эпоха: Sep 15, 2026, 03:04 UTC

1 53851C 22114AK  26258.12826389  .00030232  00000+0  18960-2 0  2587
2 53851  53.1585 162.8418 0001569  85.7398 272.5129 15.08818300    15

Отслеживайте STARLINK-4755 в реальном времени с AllMySat

Download on the App Store